Location: Marne
(34.0056°N, 117.9064°W)
Time: 17:16:47
(UTC+00:00)

Cosmos 2082 - Pass Details

Date: 18 January 2020
Orbit: 833 x 856 km, 71.0° (Epoch: 25 February)

Event Time Altitude Azimuth Distance (km) Brightness Sun altitude
Rises 03:34:32 0° 209° (SSW) 3,363 7.3 -30.2°
Reaches altitude 10° 03:36:59 10° 212° (SSW) 2,432 6.5 -30.7°
Enters shadow 03:42:03 59° 270° (W) 959 4.1 -31.7°
